Weather Roundup
Issued by NWS Springfield, MO

Home | Current Version | Previous Version | Text Only | Print | Product List | Glossary On
Versions: 1 2 3 4 5 6 7 8 9 10 11 12 13 14 15 16 17 18 19 20 21 22 23 24 25 26 27 28 29 30 31 32 33 34 35 36 37 38 39 40 41 42 43 44 45 46 47 48 49 50
000
NZUS99 KSGF 261157
HRRSGF

HOURLY WEATHER
NATIONAL WEATHER SERVICE SPRINGFIELD MO
700 AM CDT FRI AUG 26 2016

......SGF CWA......

CITY           SKY/WX    TMP DP  RH WIND       PRES   REMARKS
SPRINGFIELD    CLOUDY    72  68  87 S5        30.13R
6HR MIN TEMP:  71; 6HR MAX TEMP:  75;

JOPLIN         PTCLDY    69  68  96 E5        30.11R
6HR MIN TEMP:  68; 6HR MAX TEMP:  74;

WEST PLAINS    MOCLDY    73  70  90 CALM      30.15R FOG
6HR MIN TEMP:  73; 6HR MAX TEMP:  78;

ROLLA          CLOUDY    70  68  93 S3        30.11R
6HR MIN TEMP:  69; 6HR MAX TEMP:  72;

BRANSON        CLOUDY    72  68  88 CALM      30.14R

......SURROUNDING SGF CWA......

CITY           SKY/WX    TMP DP  RH WIND       PRES   REMARKS
CHANUTE        CLOUDY    69  68  96 CALM      30.10R
PARSONS        CLOUDY    68  67  96 NW3       30.11R
COFFEYVILLE    CLOUDY    70  69  97 N5        30.09R
EMPORIA        CLOUDY    68  66  93 E5        30.09R
HARRISON AR    CLOUDY    71  69  93 CALM      30.14R

......KANSAS AND MISSOURI......

CITY           SKY/WX    TMP DP  RH WIND       PRES   REMARKS
KANSAS CTY INT CLOUDY    68  65  90 NE8       30.12R
COLUMBIA       LGT RAIN  72  72 100 N3        30.11R VSB 3/4
SEDALIA        CLOUDY    71  68  90 E5        30.12R
ST JOSEPH      LGT RAIN  66  65  96 N6        30.12F
ST LOUIS       CLOUDY    74  69  85 NE7       30.11R
WICHITA        LGT RAIN  69  68  96 SE3       30.06F
TOPEKA         CLOUDY    68  66  93 SE6       30.10R
OLATHE         CLOUDY    67  67 100 CALM      30.11R

......TENNESSEE......

CITY           SKY/WX    TMP DP  RH WIND       PRES   REMARKS
MEMPHIS        NOT AVBL
NASHVILLE      MOCLDY    75  74  96 CALM      30.12S FOG

......ARKANSAS.......

CITY           SKY/WX    TMP DP  RH WIND       PRES   REMARKS
FAYETTEVILLE   CLOUDY    70  69  97 CALM      30.13R
FT SMITH       CLOUDY    73  69  87 CALM      30.09R
LITTLE ROCK    MOCLDY    77  72  84 CALM      30.10R

......OKLAHOMA.......

CITY           SKY/WX    TMP DP  RH WIND       PRES   REMARKS
TULSA          CLOUDY    73  71  93 CALM      30.06R
PONCA CITY     CLOUDY    68  65  90 N5        30.08R
MCALESTER      MOCLDY    73  70  90 E5        30.08R
OKLAHOMA CITY  CLOUDY    69  66  90 NE3       30.07F

......IOWA............

CITY           SKY/WX    TMP DP  RH WIND       PRES   REMARKS
DES MOINES     NOT AVBL
QUAD CITIES    PTCLDY    65  61  87 E3        30.15R

......ILLINOIS........

CITY           SKY/WX    TMP DP  RH WIND       PRES   REMARKS
QUINCY         LGT RAIN  66  66 100 N13       30.12R FOG
CHICAGO        MOCLDY    66  61  84 N6        30.14R




USA.gov is the U.S. government's official web portal to all federal, state and local government web resources and services.